Date_Time,Julian_Date,Latitude,Longitude,Instrument_Depth,Water_Temperature
(yyyy-mm-dd hh:mn:ss UTC),(JD),(+ deg. North),(+ deg. East),(m),(deg. C)
1987-04-05 16:00:00 UTC,2446891.166667,27.4683,-91.9931,0300,12.9200
1987-04-05 16:30:00 UTC,2446891.187500,27.4683,-91.9931,0300,12.6200
1987-04-05 17:00:00 UTC,2446891.208333,27.4683,-91.9931,0300,12.7100
1987-04-05 17:30:00 UTC,2446891.229167,27.4683,-91.9931,0300,12.6500
1987-04-05 18:00:00 UTC,2446891.250000,27.4683,-91.9931,0300,12.6800
1987-04-05 18:30:00 UTC,2446891.270833,27.4683,-91.9931,0300,12.6400
1987-04-05 19:00:00 UTC,2446891.291667,27.4683,-91.9931,0300,12.6000
1987-04-05 19:30:00 UTC,2446891.312500,27.4683,-91.9931,0300,12.6500
1987-04-05 20:00:00 UTC,2446891.333333,27.4683,-91.9931,0300,12.6400
1987-04-05 20:30:00 UTC,2446891.354167,27.4683,-91.9931,0300,12.6400
1987-04-05 21:00:00 UTC,2446891.375000,27.4683,-91.9931,0300,12.7100
1987-04-05 21:30:00 UTC,2446891.395833,27.4683,-91.9931,0300,12.7300
1987-04-05 22:00:00 UTC,2446891.416667,27.4683,-91.9931,0300,12.7900
1987-04-05 22:30:00 UTC,2446891.437500,27.4683,-91.9931,0300,12.8200
1987-04-05 23:00:00 UTC,2446891.458333,27.4683,-91.9931,0300,12.9000
1987-04-05 23:30:00 UTC,2446891.479167,27.4683,-91.9931,0300,12.9500
1987-04-06 00:00:00 UTC,2446891.500000,27.4683,-91.9931,0300,12.9600
1987-04-06 00:30:00 UTC,2446891.520833,27.4683,-91.9931,0300,12.9300
1987-04-06 01:00:00 UTC,2446891.541667,27.4683,-91.9931,0300,12.9000
1987-04-06 01:30:00 UTC,2446891.562500,27.4683,-91.9931,0300,12.8700
1987-04-06 02:00:00 UTC,2446891.583333,27.4683,-91.9931,0300,12.8700
1987-04-06 02:30:00 UTC,2446891.604167,27.4683,-91.9931,0300,12.8100
1987-04-06 03:00:00 UTC,2446891.625000,27.4683,-91.9931,0300,12.7900
1987-04-06 03:30:00 UTC,2446891.645833,27.4683,-91.9931,0300,12.6800
1987-04-06 04:00:00 UTC,2446891.666667,27.4683,-91.9931,0300,12.6500
1987-04-06 04:30:00 UTC,2446891.687500,27.4683,-91.9931,0300,12.6800
1987-04-06 05:00:00 UTC,2446891.708333,27.4683,-91.9931,0300,12.6500
1987-04-06 05:30:00 UTC,2446891.729167,27.4683,-91.9931,0300,12.7300
1987-04-06 06:00:00 UTC,2446891.750000,27.4683,-91.9931,0300,12.7300
1987-04-06 06:30:00 UTC,2446891.770833,27.4683,-91.9931,0300,12.6400
1987-04-06 07:00:00 UTC,2446891.791667,27.4683,-91.9931,0300,12.7000
1987-04-06 07:30:00 UTC,2446891.812500,27.4683,-91.9931,0300,12.6400
1987-04-06 08:00:00 UTC,2446891.833333,27.4683,-91.9931,0300,12.7500
1987-04-06 08:30:00 UTC,2446891.854167,27.4683,-91.9931,0300,12.7600
1987-04-06 09:00:00 UTC,2446891.875000,27.4683,-91.9931,0300,12.7800
1987-04-06 09:30:00 UTC,2446891.895833,27.4683,-91.9931,0300,12.7800
1987-04-06 10:00:00 UTC,2446891.916667,27.4683,-91.9931,0300,12.7900
1987-04-06 10:30:00 UTC,2446891.937500,27.4683,-91.9931,0300,12.8400
1987-04-06 11:00:00 UTC,2446891.958333,27.4683,-91.9931,0300,12.8100
1987-04-06 11:30:00 UTC,2446891.979167,27.4683,-91.9931,0300,12.8200
1987-04-06 12:00:00 UTC,2446892.000000,27.4683,-91.9931,0300,12.8100
1987-04-06 12:30:00 UTC,2446892.020833,27.4683,-91.9931,0300,12.6400
1987-04-06 13:00:00 UTC,2446892.041667,27.4683,-91.9931,0300,12.6000
1987-04-06 13:30:00 UTC,2446892.062500,27.4683,-91.9931,0300,12.6200
1987-04-06 14:00:00 UTC,2446892.083333,27.4683,-91.9931,0300,12.7000
1987-04-06 14:30:00 UTC,2446892.104167,27.4683,-91.9931,0300,12.7100
1987-04-06 15:00:00 UTC,2446892.125000,27.4683,-91.9931,0300,12.5700
1987-04-06 15:30:00 UTC,2446892.145833,27.4683,-91.9931,0300,12.6800
1987-04-06 16:00:00 UTC,2446892.166667,27.4683,-91.9931,0300,12.5900
1987-04-06 16:30:00 UTC,2446892.187500,27.4683,-91.9931,0300,12.6000
1987-04-06 17:00:00 UTC,2446892.208333,27.4683,-91.9931,0300,12.6500
1987-04-06 17:30:00 UTC,2446892.229167,27.4683,-91.9931,0300,12.6800
1987-04-06 18:00:00 UTC,2446892.250000,27.4683,-91.9931,0300,12.7600
1987-04-06 18:30:00 UTC,2446892.270833,27.4683,-91.9931,0300,12.8900
1987-04-06 19:00:00 UTC,2446892.291667,27.4683,-91.9931,0300,12.8700
1987-04-06 19:30:00 UTC,2446892.312500,27.4683,-91.9931,0300,12.7800
1987-04-06 20:00:00 UTC,2446892.333333,27.4683,-91.9931,0300,12.7800
1987-04-06 20:30:00 UTC,2446892.354167,27.4683,-91.9931,0300,12.6800
1987-04-06 21:00:00 UTC,2446892.375000,27.4683,-91.9931,0300,12.7100
1987-04-06 21:30:00 UTC,2446892.395833,27.4683,-91.9931,0300,12.7100
1987-04-06 22:00:00 UTC,2446892.416667,27.4683,-91.9931,0300,12.8700
1987-04-06 22:30:00 UTC,2446892.437500,27.4683,-91.9931,0300,12.9600
1987-04-06 23:00:00 UTC,2446892.458333,27.4683,-91.9931,0300,12.9800
1987-04-06 23:30:00 UTC,2446892.479167,27.4683,-91.9931,0300,12.9500
1987-04-07 00:00:00 UTC,2446892.500000,27.4683,-91.9931,0300,12.8500
1987-04-07 00:30:00 UTC,2446892.520833,27.4683,-91.9931,0300,12.8700
1987-04-07 01:00:00 UTC,2446892.541667,27.4683,-91.9931,0300,12.8400
1987-04-07 01:30:00 UTC,2446892.562500,27.4683,-91.9931,0300,12.8500
1987-04-07 02:00:00 UTC,2446892.583333,27.4683,-91.9931,0300,12.8400
1987-04-07 02:30:00 UTC,2446892.604167,27.4683,-91.9931,0300,12.7800
1987-04-07 03:00:00 UTC,2446892.625000,27.4683,-91.9931,0300,12.8200
1987-04-07 03:30:00 UTC,2446892.645833,27.4683,-91.9931,0300,12.7500
1987-04-07 04:00:00 UTC,2446892.666667,27.4683,-91.9931,0300,12.8200
1987-04-07 04:30:00 UTC,2446892.687500,27.4683,-91.9931,0300,12.8700
1987-04-07 05:00:00 UTC,2446892.708333,27.4683,-91.9931,0300,12.8400
1987-04-07 05:30:00 UTC,2446892.729167,27.4683,-91.9931,0300,12.9500
1987-04-07 06:00:00 UTC,2446892.750000,27.4683,-91.9931,0300,12.9800
1987-04-07 06:30:00 UTC,2446892.770833,27.4683,-91.9931,0300,12.8500
1987-04-07 07:00:00 UTC,2446892.791667,27.4683,-91.9931,0300,12.7800
1987-04-07 07:30:00 UTC,2446892.812500,27.4683,-91.9931,0300,12.9200
1987-04-07 08:00:00 UTC,2446892.833333,27.4683,-91.9931,0300,12.9500
1987-04-07 08:30:00 UTC,2446892.854167,27.4683,-91.9931,0300,12.8200
1987-04-07 09:00:00 UTC,2446892.875000,27.4683,-91.9931,0300,12.8100
1987-04-07 09:30:00 UTC,2446892.895833,27.4683,-91.9931,0300,12.7900
1987-04-07 10:00:00 UTC,2446892.916667,27.4683,-91.9931,0300,12.7900
1987-04-07 10:30:00 UTC,2446892.937500,27.4683,-91.9931,0300,12.7900
1987-04-07 11:00:00 UTC,2446892.958333,27.4683,-91.9931,0300,12.8200
1987-04-07 11:30:00 UTC,2446892.979167,27.4683,-91.9931,0300,12.9500
1987-04-07 12:00:00 UTC,2446893.000000,27.4683,-91.9931,0300,12.9800
1987-04-07 12:30:00 UTC,2446893.020833,27.4683,-91.9931,0300,12.8100
1987-04-07 13:00:00 UTC,2446893.041667,27.4683,-91.9931,0300,12.9200
1987-04-07 13:30:00 UTC,2446893.062500,27.4683,-91.9931,0300,12.9000
1987-04-07 14:00:00 UTC,2446893.083333,27.4683,-91.9931,0300,12.9300
1987-04-07 14:30:00 UTC,2446893.104167,27.4683,-91.9931,0300,12.7000
1987-04-07 15:00:00 UTC,2446893.125000,27.4683,-91.9931,0300,12.7000
1987-04-07 15:30:00 UTC,2446893.145833,27.4683,-91.9931,0300,12.7000
1987-04-07 16:00:00 UTC,2446893.166667,27.4683,-91.9931,0300,12.8100
1987-04-07 16:30:00 UTC,2446893.187500,27.4683,-91.9931,0300,12.8200
1987-04-07 17:00:00 UTC,2446893.208333,27.4683,-91.9931,0300,12.7000
1987-04-07 17:30:00 UTC,2446893.229167,27.4683,-91.9931,0300,12.4800
1987-04-07 18:00:00 UTC,2446893.250000,27.4683,-91.9931,0300,12.5300
1987-04-07 18:30:00 UTC,2446893.270833,27.4683,-91.9931,0300,12.6200
